Regional Weather Roundup
Issued by NWS

Home | Current Version | Previous Version | Graphics & Text | Print | Product List | Glossary Off
Versions: 1 2 3 4 5 6 7 8 9 10 11 12 13 14 15 16 17 18 19 20 21 22 23 24 25 26 27 28 29 30 31 32 33 34 35 36 37 38 39 40 41 42 43 44 45 46 47 48 49 50

000
ASUS43 KMPX 200801
RWRMN
WEATHER ROUNDUP FOR MINNESOTA
NATIONAL WEATHER SERVICE TWIN CITIES/CHANHASSEN MN
300 AM CDT SUN AUG 20 2017


NOTE: "FAIR" INDICATES FEW OR NO CLOUDS BELOW 12,000 FEET WITH NO
SIGNIFICANT WEATHER AND/OR OBSTRUCTIONS TO VISIBILITY. N/A MEANS
CURRENT SKY AND/OR WEATHER CONDITIONS ARE NOT AVAILABLE.

MNZ060>063-068>070-200900-
   Twin Cities Metro

CITY           SKY/WX    TMP DP  RH WIND       PRES   REMARKS
TWIN CITIES    PTCLDY    68  62  81 S8        29.87F
ST PAUL        PTCLDY    65  64  97 SE7       29.87F FOG
CRYSTAL        PTCLDY    65  60  84 S5        29.85F
LAKEVILLE      CLOUDY    57  57 100 CALM      29.88S FOG
EDEN PRAIRIE   CLOUDY    66  62  87 SE5       29.86F
SOUTH ST PAUL  PTCLDY    64  64  97 S3        29.87F
LAKE ELMO      FAIR      64  63  94 SE3       29.89F
$$
MNZ001>005-007-008-013>017-022>024-027-028-200900-
   Northwest Minnesota

CITY           SKY/WX    TMP DP  RH WIND       PRES   REMARKS
BEMIDJI        MOCLDY    64  61  88 S7        29.79F
HALLOCK        CLEAR     66  57  72 NW12      29.75R
ROSEAU         CLEAR     66  61  82 SW8       29.72F
WARROAD        CLEAR     68  64  88 SW10G18   29.72F
CROOKSTON      CLEAR     66  63  88 NW10      29.77R
FOSSTON        CLEAR     66  61  82 S12       29.78S
DETROIT LAKES  CLEAR     68  63  83 SW7       29.81F
MOORHEAD       PTCLDY    64  63  94 S6        29.80R
PARK RAPIDS    PTCLDY    63  60  90 SE7       29.81F
MAHNOMEN       FAIR      65  62  91 S10       29.77F
$$
MNZ006-009>011-018-025>026-200900-
   North Central Minnesota

CITY           SKY/WX    TMP DP  RH WIND       PRES   REMARKS
BAUDETTE       MOCLDY    62  60  93 S7        29.74F
FLAG ISLAND    CLEAR     70  63  78 S3        29.69F
INTL FALLS     CLEAR     62  58  86 VRB3      29.78F
WASKISH        CLEAR     64  61  88 S5        29.77F
BIG FORK       CLEAR     63  59  88 S3        29.82S
LONGVILLE      CLEAR     63  61  94 S5        29.83F
GRAND RAPIDS   CLEAR     60  59  96 S7        29.85F
CRANE LAKE     CLEAR     52  52 100 CALM      29.84F
ORR            PTCLDY    61  55  82 S6        29.81S
COOK           PTCLDY    61  57  88 CALM      29.84F
WALKER         FAIR      65  61  88 S6        29.80F
$$
MNZ012-019>021-037-200900-
   Northeast Minnesota

CITY           SKY/WX    TMP DP  RH WIND       PRES   REMARKS
DULUTH         CLEAR     61  59  93 CALM      29.87F
ELY            CLEAR     57  55  94 CALM      29.86F
HIBBING        FOG       53  53 100 SE3       29.85F VSB 1
EVELETH        CLEAR     63  57  83 CALM      29.87F
DULUTH HARBOR  CLEAR     63  61  94 CALM      29.86F
GRAND MARAIS     N/A     59  58  96 CALM      29.85F
$$
MNZ029>031-032-039>041-046>048-054>057-064-200900-
   West Central Minnesota

CITY           SKY/WX    TMP DP  RH WIND       PRES   REMARKS
FERGUS FALLS   PTCLDY    64  64 100 S6        29.81S
WHEATON        CLOUDY    64  63  94 S6        29.82S
MORRIS         CLEAR     64  63  94 S7        29.82S FOG
ALEXANDRIA     CLEAR     65  63  93 S7        29.84F
ELBOW LAKE     FAIR      65  64  97 S9        29.82F
WADENA         MOCLDY    64  64 100 S7        29.82F
GLENWOOD       CLEAR     63  61  94 CALM      29.85S
APPLETON       CLEAR     64  63  94 SE3       29.82F
BENSON         CLEAR     64  63  94 S6        29.85S
ORTONVILLE     CLEAR     63  61  94 MISG      29.83R
MADISON        CLOUDY    64  64 100 CALM      29.83S
WILLMAR        FAIR      64  63  94 CALM      29.86R
$$
MNZ033>034-036-042>043-049>051-058-059-200900-
   Central Minnesota

CITY           SKY/WX    TMP DP  RH WIND       PRES   REMARKS
ST CLOUD       CLEAR     63  63 100 SE3       29.85F
SAUK CENTRE    FOG       60  60  99 CALM      29.85S VSB 1
PAYNESVILLE    CLEAR     64  62  96 CALM      29.85S
AITKIN         CLEAR     64  61  88 S5        29.83F
PINE RIVER     CLEAR     55  55 100 CALM      29.87S FOG
BRAINERD       CLEAR     63  61  93 S8        29.84F
STAPLES        CLEAR     63  63 100 S7        29.83F
LONG PRAIRIE   FAIR      59  59 100 E5        29.84F FOG
LITTLE FALLS   CLEAR     61  59  94 CALM      29.85F
LITCHFIELD     CLOUDY    66  66 100 CALM      29.86S
BUFFALO        PTCLDY    64  60  88 CALM      29.87S
MAPLE LAKE     CLOUDY    65  64  96 S3        29.86F
HUTCHINSON     CLEAR     62  61  99 CALM      29.86S
$$
MNZ037-044-045-052-053-200900-
   East Central Minnesota

CITY           SKY/WX    TMP DP  RH WIND       PRES   REMARKS
PRINCETON      CLEAR     63  61  94 E3        29.85F FOG
MORA           CLEAR     55  55 100 CALM      29.88F FOG
CAMBRIDGE      CLEAR     64  63  94 CALM      29.86F
RUSH CITY      PTCLDY    61  59  94 S5        29.87F FOG
MOOSE LAKE     FOG       54  54 100 CALM      29.85F VSB 1/2
HINCKLEY       FAIR      55  55 100 CALM      29.87F
CLOQUET        PTCLDY    59  57  94 CALM      29.87F
MCGREGOR       CLEAR     61  59  94 S5        29.85F
$$
MNZ071>073-080-081-089-090-097-098-200900-
   Southwest Minnesota

CITY           SKY/WX    TMP DP  RH WIND       PRES   REMARKS
MONTEVIDEO     CLOUDY    63  63 100 S5        29.84R
GRANITE FALLS  PTCLDY    65  64  96 CALM      29.85S
CANBY          CLOUDY    65  63  93 CALM      29.84F
MARSHALL       CLOUDY    66  64  93 SE3       29.83F
REDWOOD FALLS  CLOUDY    65  62  90 NE3       29.83S
OLIVIA         CLOUDY    64  61  88 SE3       29.84S
PIPESTONE      CLOUDY    66  64  94 CALM      29.85S
WINDOM         CLOUDY    68  63  83 SE6       29.85S
WORTHINGTON    CLOUDY    66  63  90 S6        29.87R
JACKSON        CLOUDY    64  63  94 CALM      29.88R
TRACY          CLOUDY    68  65  91 S6        29.84S
SLAYTON        CLOUDY    64  60  88 SE7       29.86R
$$
MNZ065>067-074>077-082>085-091>093-200900-
   South Central Minnesota

CITY           SKY/WX    TMP DP  RH WIND       PRES   REMARKS
NEW ULM        CLOUDY    64  63  94 SE7       29.84S
ST JAMES       CLOUDY    66  64  94 SE5       29.86S
FAIRMONT       CLOUDY    67  65  93 S9        29.87R
GLENCOE        PTCLDY    64  64 100 SE3       29.85F
FARIBAULT      CLOUDY    66  63  88 S3        29.89R
OWATONNA       CLOUDY    66  63  88 S10       29.90R
WASECA         CLOUDY    63  61  94 SE5       29.90S
ALBERT LEA     CLOUDY    70  64  83 S5        29.91R
$$
MNZ078>079-086>088-094>096-200900-
   Southeast Minnesota

CITY           SKY/WX    TMP DP  RH WIND       PRES   REMARKS
ROCHESTER      CLOUDY    61  60  97 S8        29.93S
RED WING       CLOUDY    63  59  88 CALM      29.88F
DODGE CENTER   CLOUDY    61  59  94 SE7       29.90F
WINONA         CLOUDY    61  61 100 CALM      29.92F
AUSTIN         CLOUDY    64  61  88 S5        29.91S
PRESTON        CLOUDY    61  58  91 S5        29.94R
$$
ABBREVIATIONS USED IN REMARKS
   TC - TEMPERATURES IN CELSIUS
  WCI - WIND CHILL INDEX
   HX - HEAT INDEX
  VSB - VISIBILITY
$$




USA.gov is the U.S. government's official web portal to all federal, state and local government web resources and services.